Home > Weather > Chattanooga > Past weeks

Flag for USA Past Weather in Chattanooga, Tennessee, USA — Yesterday and Last 2 Weeks

Now
75 °F

Passing clouds.


Feels Like: 74 °F
Forecast: 74 / 88 °F
Wind: 5 mph from South

Location: Lovell Field

Current Time: Jul 29, 2016 at 3:53:56 AM

Latest Report: Jul 29, 2016 at 2:53 AM


Visibility: 10 mi

Pressure: 29.97 "Hg

Humidity: 88%

Dew Point: 71 °F

Location of ChattanoogaLocation

Past Weather in Chattanooga — Graph

°F

Chattanooga Temperature Yesterday

Maximum temperature yesterday: 85 °F (at 1:53 PM)
Minimum temperature yesterday: 75 °F (at 6:53 AM)
Average temperature yesterday: 79 °F

High & Low Weather Summary for the Past Weeks

 TemperatureHumidityPressure
High99 °F (Jul 20, 4:53 PM)94% (Jul 17, 1:53 AM)30.26 "Hg (Jul 17, 1:53 AM)
Low71 °F (Jul 17, 4:53 AM)27% (Jul 20, 4:53 PM)29.90 "Hg (Jul 28, 3:53 PM)
Average83 °F67%30.05 "Hg
* Reported Jul 14 1:53 AM — Jul 29 1:53 AM, Chattanooga, Weather by CustomWeather, © 2016

Note: Actual official high and low records may vary slightly from our data, if they occured in-between our weather recording intervals... More about our weather records

Advertising

Chattanooga Weather History for the Previous 24 Hours

Scroll right to see more
 ConditionsComfort  
Time TempWeatherWind HumidityBarometerVisibility
1:53 AM
Fri, Jul 29
76 °FPartly cloudy.7 mph82%29.96 "Hg10 mi
12:53 AM75 °FClear.3 mph85%29.97 "Hg10 mi
11:53 PM
Thu, Jul 28
76 °FPassing clouds.7 mph82%29.97 "Hg10 mi
10:53 PM77 °FMostly cloudy.6 mph82%29.96 "Hg10 mi
9:53 PM77 °FMostly cloudy.6 mph82%29.95 "Hg9 mi
8:53 PM77 °FCloudy.6 mph85%29.95 "Hg9 mi
7:53 PM78 °FCloudy.8 mph82%29.93 "Hg10 mi
6:53 PM78 °FBroken clouds.7 mph84%29.92 "Hg10 mi
5:53 PM77 °FPartly sunny.12 mph85%29.91 "Hg10 mi
4:53 PM77 °FPartly sunny.6 mph88%29.91 "Hg8 mi
3:53 PM80 °FBroken clouds.5 mph79%29.90 "Hg10 mi
2:53 PM85 °FBroken clouds.16 mph57%29.90 "Hg10 mi
1:53 PM85 °FPartly sunny.17 mph59%29.94 "Hg10 mi
12:53 PM82 °FDrizzle. Mostly cloudy.14 mph65%29.95 "Hg9 mi
11:53 AM82 °FPartly sunny.15 mph63%29.96 "Hg10 mi
10:53 AM81 °FPartly sunny.17 mph67%29.97 "Hg10 mi
9:53 AM80 °FPartly sunny.12 mph69%29.98 "Hg10 mi
8:53 AM79 °FBroken clouds.9 mph74%29.97 "Hg10 mi
7:53 AM76 °FPartly sunny.5 mph82%29.97 "Hg10 mi
6:53 AM75 °FPassing clouds.5 mph82%29.96 "Hg10 mi
5:53 AM76 °FPassing clouds.5 mph80%29.96 "Hg10 mi
4:53 AM76 °FClear.6 mph80%29.96 "Hg10 mi
3:53 AM77 °FPassing clouds.6 mph77%29.96 "Hg10 mi
Weather by CustomWeather, © 2016

See weather overviewHow to use our weather pages